Location: Newark
(34.6501°N, 117.8502°W)
Time: 11:09:54
(UTC+00:00)

BlueWalker 3 - Pass Details

Date: 08 December 2022
Orbit: 499 x 517 km, 53.2° (Epoch: 04 February)

Event Time Altitude Azimuth Distance (km) Brightness Sun altitude
Rises 01:42:45 0° 330° (NNW) 2,621 5.7 -12.6°
Reaches altitude 10° 01:46:27 10° 6° (N) 1,727 4.4 -13.3°
Enters shadow 01:47:31 11° 22° (NNE) 1,646 4.2 -13.5°
